Weather History for Washington, NC

Change the Weather History Date:

Sunday, November 25, 2012

  Actual Average (KEWN) Record (KEWN)
Temperature  
Mean Temperature 38 °F 52 °F  
Max Temperature 52 °F 64 °F 83 °F (1973)
Min Temperature 25 °F 41 °F 22 °F (1950)
Degree Days  
Heating Degree Days 27 13  
Month to date heating degree days 242  
Since 1 July heating degree days 359  
Cooling Degree Days 0 0  
Month to date cooling degree days 14  
Year to date cooling degree days 1899  
Moisture  
Dew Point 18 °F    
Average Humidity 51    
Maximum Humidity 80    
Minimum Humidity 14    
Precipitation  
Precipitation 0.00 in 0.11 in 1.48 in (1972)
Month to date precipitation 2.81  
Year to date precipitation 48.76  
Snow  
Snow 0.00 in - - ()
Month to date snowfall  
Since 1 July snowfall  
Snow Depth -    
Sea Level Pressure  
Sea Level Pressure 30.12 in    
Wind  
Wind Speed 3 mph (WSW)    
Max Wind Speed 12 mph    
Max Gust Speed 16 mph    
Visibility 10 miles    
Events      
T = Trace of Precipitation, MM = Missing Value Source: NWS Daily Summary

Daily Weather History Graph

Daily Weather History Graph

Search for Another Location

Airport:

Trip Planner

Search our weather history database for the weather conditions in past years. The results will help you decide how hot, cold, wet, or windy it might be!

Date:

Astronomy

Nov. 25, 2012 Rise Set
Actual Time 6:54 AM EST 4:56 PM EST
Civil Twilight 6:26 AM EST 5:24 PM EST
Nautical Twilight 5:55 AM EST 5:55 PM EST
Astronomical Twilight 5:24 AM EST 6:25 PM EST
Moon 3:08 PM EST 4:10 AM EST
Length of Visible Light 10h 57m
Length of Day
10h 02m
Waxing Gibbous, 93% of the Moon is Illuminated
Nov 25
Waxing Gibbous
Nov 28
Full
Dec 6
Last Quarter
Dec 13
New
Dec 20
First Quarter

Hourly Weather History & Observations

Time (EST) Temp. Windchill Dew Point Humidity Pressure Visibility Wind Dir Wind Speed Gust Speed Precip Events Conditions
12:15 AM 32.5 °F 29.3 °F 21.7 °F 64% 30.12 in 10.0 mi NW 3.5 mph - N/A   Clear
12:35 AM 32.5 °F 29.3 °F 21.4 °F 64% 30.12 in 10.0 mi NW 3.5 mph - N/A   Clear
12:55 AM 32.5 °F - 21.9 °F 65% 30.11 in 10.0 mi Calm Calm - N/A   Clear
1:15 AM 32.5 °F - 23.0 °F 68% 30.10 in 10.0 mi Calm Calm - N/A   Clear
1:35 AM 32.5 °F - 23.7 °F 70% 30.10 in 10.0 mi Calm Calm - N/A   Clear
1:55 AM 30.2 °F 26.7 °F 22.5 °F 73% 30.11 in 10.0 mi NW 3.5 mph - N/A   Clear
2:15 AM 30.2 °F - 21.7 °F 71% 30.11 in 10.0 mi Calm Calm - N/A   Clear
2:35 AM 29.5 °F - 21.9 °F 73% 30.11 in 10.0 mi Calm Calm - N/A   Clear
2:55 AM 30.2 °F - 23.5 °F 76% 30.11 in 10.0 mi Calm Calm - N/A   Clear
3:15 AM 27.5 °F - 21.9 °F 80% 30.12 in 10.0 mi Calm Calm - N/A   Clear
3:35 AM 28.4 °F 24.6 °F 22.1 °F 77% 30.12 in 10.0 mi West 3.5 mph - N/A   Clear
3:55 AM 27.7 °F - 21.2 °F 77% 30.13 in 10.0 mi Calm Calm - N/A   Clear
4:15 AM 27.5 °F - 21.2 °F 77% 30.14 in 10.0 mi Calm Calm - N/A   Clear
4:35 AM 27.5 °F - 21.0 °F 77% 30.13 in 10.0 mi Calm Calm - N/A   Clear
4:55 AM 28.0 °F - 20.7 °F 74% 30.13 in 10.0 mi Calm Calm - N/A   Clear
5:15 AM 27.9 °F - 20.7 °F 74% 30.12 in 10.0 mi Calm Calm - N/A   Clear
5:35 AM 27.5 °F - 21.2 °F 77% 30.12 in 10.0 mi Calm Calm - N/A   Clear
5:55 AM 27.1 °F - 21.0 °F 78% 30.13 in 10.0 mi Calm Calm - N/A   Clear
6:15 AM 25.9 °F - 19.9 °F 78% 30.13 in 10.0 mi Calm Calm - N/A   Clear
6:35 AM 26.2 °F - 20.3 °F 78% 30.14 in 10.0 mi Calm Calm - N/A   Clear
6:55 AM 25.5 °F - 20.1 °F 80% 30.16 in 10.0 mi Calm Calm - N/A   Clear
7:15 AM 26.4 °F - 20.3 °F 78% 30.16 in 10.0 mi Calm Calm - N/A   Clear
7:35 AM 27.0 °F - 20.8 °F 78% 30.16 in 10.0 mi Calm Calm - N/A   Clear
7:55 AM 29.3 °F - 23.0 °F 77% 30.17 in 10.0 mi Calm Calm - N/A   Clear
8:15 AM 32.5 °F - 25.3 °F 75% 30.18 in 10.0 mi Calm Calm - N/A   Clear
8:35 AM 32.5 °F 29.3 °F 23.4 °F 69% 30.18 in 10.0 mi West 3.5 mph - N/A   Clear
8:55 AM 33.8 °F 28.6 °F 22.6 °F 64% 30.19 in 10.0 mi WNW 5.8 mph - N/A   Clear
9:15 AM 37.6 °F 34.0 °F 24.8 °F 60% 30.19 in 10.0 mi WNW 4.6 mph - N/A   Clear
9:35 AM 37.6 °F 34.0 °F 21.2 °F 52% 30.19 in 10.0 mi WNW 4.6 mph - N/A   Clear
9:55 AM 37.8 °F - 18.3 °F 46% 30.18 in 10.0 mi Calm Calm - N/A   Clear
10:15 AM 40.1 °F 38.0 °F 18.3 °F 42% 30.18 in 10.0 mi WSW 3.5 mph - N/A   Clear
10:35 AM 40.3 °F 38.2 °F 16.5 °F 38% 30.19 in 10.0 mi SW 3.5 mph - N/A   Clear
10:55 AM 42.8 °F 38.6 °F 16.5 °F 35% 30.18 in 10.0 mi WSW 6.9 mph - N/A   Clear
11:15 AM 42.8 °F 40.1 °F 14.4 °F 32% 30.16 in 10.0 mi SSW 4.6 mph - N/A   Clear
11:35 AM 43.3 °F 37.2 °F 12.7 °F 29% 30.15 in 10.0 mi WSW 11.5 mph 16.1 mph N/A   Clear
11:55 AM 45.0 °F 40.1 °F 11.1 °F 25% 30.14 in 10.0 mi SW 9.2 mph - N/A   Clear
12:15 PM 45.1 °F 39.9 °F 9.5 °F 23% 30.12 in 10.0 mi WSW 10.4 mph - N/A   Clear
12:35 PM 45.5 °F 42.5 °F 9.1 °F 23% 30.11 in 10.0 mi SW 5.8 mph - N/A   Clear
12:55 PM 46.0 °F 41.4 °F 9.9 °F 23% 30.10 in 10.0 mi SW 9.2 mph - N/A   Clear
1:15 PM 46.9 °F - 7.0 °F 20% 30.09 in 10.0 mi West 11.5 mph - N/A   Clear
1:35 PM 47.3 °F - 7.7 °F 20% 30.09 in 10.0 mi WSW 8.1 mph - N/A   Clear
1:55 PM 49.6 °F - 6.4 °F 17% 30.08 in 10.0 mi WSW 8.1 mph - N/A   Clear
2:15 PM 50.2 °F - 6.1 °F 17% 30.07 in 10.0 mi WSW 10.4 mph 16.1 mph N/A   Clear
2:35 PM 50.2 °F - 2.7 °F 14% 30.07 in 10.0 mi SW 8.1 mph - N/A   Clear
2:55 PM 50.2 °F - 2.3 °F 14% 30.06 in 10.0 mi WSW 9.2 mph - N/A   Clear
3:15 PM 51.8 °F - 4.5 °F 15% 30.06 in 10.0 mi WSW 8.1 mph - N/A   Clear
3:35 PM 50.2 °F - 1.9 °F 14% 30.07 in 10.0 mi WSW 10.4 mph - N/A   Clear
3:55 PM 50.2 °F - 1.6 °F 14% 30.07 in 10.0 mi SW 9.2 mph - N/A   Clear
4:15 PM 50.2 °F - 4.5 °F 16% 30.07 in 10.0 mi SW 8.1 mph - N/A   Clear
4:35 PM 47.8 °F - 6.1 °F 18% 30.07 in 10.0 mi SW 9.2 mph - N/A   Clear
4:55 PM 47.5 °F - 7.0 °F 19% 30.06 in 10.0 mi SW 6.9 mph - N/A   Clear
5:15 PM 45.9 °F 42.9 °F 9.7 °F 23% 30.06 in 10.0 mi SW 5.8 mph - N/A   Clear
5:35 PM 45.1 °F 43.7 °F 11.3 °F 25% 30.07 in 10.0 mi SSW 3.5 mph - N/A   Clear
5:55 PM 43.3 °F 41.7 °F 14.7 °F 32% 30.07 in 10.0 mi SSW 3.5 mph - N/A   Clear
6:15 PM 43.9 °F 42.3 °F 15.6 °F 32% 30.08 in 10.0 mi SW 3.5 mph - N/A   Clear
6:35 PM 42.6 °F - 20.8 °F 42% 30.09 in 10.0 mi Calm Calm - N/A   Clear
6:55 PM 40.1 °F - 20.3 °F 45% 30.10 in 10.0 mi Calm Calm - N/A   Clear
7:15 PM 40.1 °F - 22.1 °F 49% 30.11 in 10.0 mi Calm Calm - N/A   Clear
7:35 PM 40.1 °F - 23.0 °F 51% 30.11 in 10.0 mi Calm Calm - N/A   Clear
7:55 PM 38.8 °F - 22.5 °F 52% 30.12 in 10.0 mi Calm Calm - N/A   Clear
8:15 PM 37.9 °F - 22.6 °F 54% 30.12 in 10.0 mi Calm Calm - N/A   Clear
8:35 PM 37.6 °F - 23.9 °F 58% 30.12 in 10.0 mi Calm Calm - N/A   Clear
8:55 PM 37.6 °F - 27.0 °F 66% 30.12 in 10.0 mi Calm Calm - N/A   Clear
9:15 PM 36.5 °F 33.9 °F 26.4 °F 67% 30.12 in 10.0 mi South 3.5 mph - N/A   Clear
9:35 PM 37.6 °F - 23.7 °F 57% 30.13 in 10.0 mi Calm Calm - N/A   Clear
9:55 PM 37.6 °F 35.1 °F 24.6 °F 60% 30.13 in 10.0 mi South 3.5 mph - N/A   Clear
10:15 PM 38.7 °F - 23.9 °F 55% 30.12 in 10.0 mi Calm Calm - N/A   Clear
10:35 PM 37.6 °F 35.1 °F 24.4 °F 59% 30.12 in 10.0 mi SSW 3.5 mph - N/A   Clear
10:55 PM 38.5 °F 35.0 °F 24.4 °F 57% 30.12 in 10.0 mi South 4.6 mph - N/A   Clear
11:15 PM 40.1 °F 38.0 °F 24.8 °F 54% 30.12 in 10.0 mi SSW 3.5 mph - N/A   Clear
11:35 PM 38.7 °F - 24.4 °F 57% 30.12 in 10.0 mi Calm Calm - N/A   Clear
11:55 PM 37.6 °F - 24.4 °F 59% 30.11 in 10.0 mi Calm Calm - N/A   Clear